Time,TemperatureF,DewpointF,PressureIn,WindDirection,WindDirectionDegrees,WindSpeedMPH,WindSpeedGustMPH,Humidity,HourlyPrecipIn,Conditions,Clouds,dailyrainin,SoftwareType,DateUTC
2013-08-21 00:10:00,77.0,-99.9,-100.00,NW,314,4.0,4.0,-999,-99.99,,,-99.99,,2013-08-21 06:10:00,
2013-08-21 00:52:00,77.0,-99.9,-100.00,NW,314,4.0,4.0,-999,-99.99,,,-99.99,,2013-08-21 06:52:00,
2013-08-21 01:02:00,77.0,-99.9,-100.00,NW,314,4.0,4.0,-999,-99.99,,,-99.99,,2013-08-21 07:02:00,
2013-08-21 01:10:00,74.0,-99.9,-100.00,ENE,63,2.0,3.0,-999,-99.99,,,-99.99,,2013-08-21 07:10:00,
2013-08-21 01:22:00,76.0,-99.9,-100.00,WSW,258,2.0,6.0,-999,-99.99,,,-99.99,,2013-08-21 07:22:00,
2013-08-21 01:32:00,76.0,-99.9,-100.00,WSW,258,2.0,6.0,-999,-99.99,,,-99.99,,2013-08-21 07:32:00,
2013-08-21 01:53:00,74.0,-99.9,-100.00,ENE,63,2.0,3.0,-999,-99.99,,,-99.99,,2013-08-21 07:53:00,
2013-08-21 02:03:00,74.0,-99.9,-100.00,ENE,63,2.0,3.0,-999,-99.99,,,-99.99,,2013-08-21 08:03:00,
2013-08-21 02:22:00,73.0,-99.9,-100.00,West,263,5.0,7.0,-999,-99.99,,,-99.99,,2013-08-21 08:22:00,
2013-08-21 02:32:00,73.0,-99.9,-100.00,West,263,5.0,7.0,-999,-99.99,,,-99.99,,2013-08-21 08:32:00,
2013-08-21 03:54:00,70.0,-99.9,-100.00,North,8,0.0,1.0,-999,-99.99,,,-99.99,,2013-08-21 09:54:00,
2013-08-21 04:04:00,70.0,-99.9,-100.00,North,8,0.0,1.0,-999,-99.99,,,-99.99,,2013-08-21 10:04:00,
2013-08-21 04:13:00,70.0,-99.9,-100.00,North,8,0.0,1.0,-999,-99.99,,,-99.99,,2013-08-21 10:13:00,
2013-08-21 06:52:00,65.0,-99.9,-100.00,NNE,25,0.0,1.0,-999,-99.99,,,-99.99,,2013-08-21 12:52:00,
2013-08-21 07:02:00,65.0,-99.9,-100.00,NNE,25,0.0,1.0,-999,-99.99,,,-99.99,,2013-08-21 13:02:00,
2013-08-21 07:12:00,65.0,-99.9,-100.00,NNE,25,0.0,1.0,-999,-99.99,,,-99.99,,2013-08-21 13:12:00,
2013-08-21 07:22:00,65.0,-99.9,-100.00,NNE,22,0.0,0.0,-999,-99.99,,,-99.99,,2013-08-21 13:22:00,
2013-08-21 07:42:00,66.0,-99.9,-100.00,East,87,1.0,1.0,-999,-99.99,,,-99.99,,2013-08-21 13:42:00,
2013-08-21 07:52:00,66.0,-99.9,-100.00,East,87,1.0,1.0,-999,-99.99,,,-99.99,,2013-08-21 13:52:00,
2013-08-21 08:30:00,72.0,-99.9,-100.00,WNW,294,2.0,3.0,-999,-99.99,,,-99.99,,2013-08-21 14:30:00,
2013-08-21 08:52:00,72.0,-99.9,-100.00,North,359,1.0,1.0,-999,-99.99,,,-99.99,,2013-08-21 14:52:00,
2013-08-21 09:01:00,72.0,-99.9,-100.00,North,359,1.0,1.0,-999,-99.99,,,-99.99,,2013-08-21 15:01:00,
2013-08-21 09:11:00,72.0,-99.9,-100.00,North,359,1.0,1.0,-999,-99.99,,,-99.99,,2013-08-21 15:11:00,
2013-08-21 09:22:00,72.0,-99.9,-100.00,WNW,294,2.0,3.0,-999,-99.99,,,-99.99,,2013-08-21 15:22:00,
2013-08-21 10:10:00,79.0,-99.9,-100.00,NE,45,1.0,2.0,-999,-99.99,,,-99.99,,2013-08-21 16:10:00,
2013-08-21 10:53:00,79.0,-99.9,-100.00,NE,45,1.0,2.0,-999,-99.99,,,-99.99,,2013-08-21 16:53:00,
2013-08-21 11:04:00,79.0,-99.9,-100.00,NE,45,1.0,2.0,-999,-99.99,,,-99.99,,2013-08-21 17:04:00,
2013-08-21 11:40:00,84.0,-99.9,-100.00,ENE,78,2.0,5.0,-999,-99.99,,,-99.99,,2013-08-21 17:40:00,
2013-08-21 11:53:00,83.0,-99.9,-100.00,ESE,104,6.0,6.0,-999,-99.99,,,-99.99,,2013-08-21 17:53:00,
2013-08-21 12:03:00,83.0,-99.9,-100.00,ESE,104,6.0,6.0,-999,-99.99,,,-99.99,,2013-08-21 18:03:00,
2013-08-21 12:22:00,84.0,-99.9,-100.00,ENE,78,2.0,5.0,-999,-99.99,,,-99.99,,2013-08-21 18:22:00,
2013-08-21 12:30:00,86.0,-99.9,-100.00,East,81,2.0,6.0,-999,-99.99,,,-99.99,,2013-08-21 18:30:00,
2013-08-21 12:32:00,84.0,-99.9,-100.00,ENE,78,2.0,5.0,-999,-99.99,,,-99.99,,2013-08-21 18:32:00,
2013-08-21 13:12:00,86.0,-99.9,-100.00,East,81,2.0,6.0,-999,-99.99,,,-99.99,,2013-08-21 19:12:00,
2013-08-21 13:22:00,86.0,-99.9,-100.00,East,81,2.0,6.0,-999,-99.99,,,-99.99,,2013-08-21 19:22:00,
2013-08-21 14:22:00,88.0,-99.9,-100.00,SE,129,0.0,6.0,-999,-99.99,,,-99.99,,2013-08-21 20:22:00,
2013-08-21 14:43:00,88.0,-99.9,-100.00,ENE,76,3.0,4.0,-999,-99.99,,,-99.99,,2013-08-21 20:43:00,
2013-08-21 14:55:00,91.0,-99.9,-100.00,East,96,3.0,6.0,-999,-99.99,,,-99.99,,2013-08-21 20:55:00,
2013-08-21 15:20:00,90.0,-99.9,-100.00,NE,56,1.0,4.0,-999,-99.99,,,-99.99,,2013-08-21 21:20:00,
2013-08-21 15:45:00,91.0,-99.9,-100.00,East,96,3.0,6.0,-999,-99.99,,,-99.99,,2013-08-21 21:45:00,
2013-08-21 15:50:00,90.0,-99.9,-100.00,NNW,329,1.0,3.0,-999,-99.99,,,-99.99,,2013-08-21 21:50:00,
2013-08-21 16:14:00,90.0,-99.9,-100.00,NE,56,1.0,4.0,-999,-99.99,,,-99.99,,2013-08-21 22:14:00,
2013-08-21 16:44:00,90.0,-99.9,-100.00,NNW,329,1.0,3.0,-999,-99.99,,,-99.99,,2013-08-21 22:44:00,
2013-08-21 17:22:00,94.0,-99.9,-100.00,East,87,4.0,5.0,-999,-99.99,,,-99.99,,2013-08-21 23:22:00,
2013-08-21 17:40:00,90.0,-99.9,-100.00,ESE,103,4.0,6.0,-999,-99.99,,,-99.99,,2013-08-21 23:40:00,
2013-08-21 17:43:00,91.0,-99.9,-100.00,East,79,3.0,5.0,-999,-99.99,,,-99.99,,2013-08-21 23:43:00,
2013-08-21 17:53:00,90.0,-99.9,-100.00,ENE,57,2.0,6.0,-999,-99.99,,,-99.99,,2013-08-21 23:53:00,
2013-08-21 18:03:00,90.0,-99.9,-100.00,ENE,57,2.0,6.0,-999,-99.99,,,-99.99,,2013-08-22 00:03:00,
2013-08-21 18:22:00,90.0,-99.9,-100.00,ESE,103,4.0,6.0,-999,-99.99,,,-99.99,,2013-08-22 00:22:00,
2013-08-21 18:32:00,90.0,-99.9,-100.00,ESE,103,4.0,6.0,-999,-99.99,,,-99.99,,2013-08-22 00:32:00,
2013-08-21 21:00:00,83.0,-99.9,-100.00,East,87,4.0,6.0,-999,-99.99,,,-99.99,,2013-08-22 03:00:00,
2013-08-21 21:45:00,83.0,-99.9,-100.00,East,87,4.0,6.0,-999,-99.99,,,-99.99,,2013-08-22 03:45:00,
2013-08-21 21:54:00,83.0,-99.9,-100.00,East,87,4.0,6.0,-999,-99.99,,,-99.99,,2013-08-22 03:54:00,